Year,Month,Day,Hour,Minute,Value (Times are PST for windspeed in km/hr)
2007,04,10,00,00,12.40
2007,04,10,00,01,6.60
2007,04,10,00,02,7.60
2007,04,10,00,03,12.90
2007,04,10,00,04,5.60
2007,04,10,00,05,5.90
2007,04,10,00,06,6.40
2007,04,10,00,07,10.30
2007,04,10,00,08,17.70
2007,04,10,00,09,13.30
2007,04,10,00,10,9.90
2007,04,10,00,11,7.20
2007,04,10,00,12,6.60
2007,04,10,00,13,5.30
2007,04,10,00,14,6.40
2007,04,10,00,15,6.90
2007,04,10,00,16,5.60
2007,04,10,00,17,9.30
2007,04,10,00,18,7.90
2007,04,10,00,19,9.30
2007,04,10,00,20,7.80
2007,04,10,00,21,9.60
2007,04,10,00,22,8.50
2007,04,10,00,23,8.60
2007,04,10,00,24,5.80
2007,04,10,00,25,7.80
2007,04,10,00,26,6.50
2007,04,10,00,27,7.90
2007,04,10,00,28,15.40
2007,04,10,00,29,11.50
2007,04,10,00,30,14.10
2007,04,10,00,31,10.70
2007,04,10,00,32,9.30
2007,04,10,00,33,7.80
2007,04,10,00,34,11.10
2007,04,10,00,35,12.40
2007,04,10,00,36,7.10
2007,04,10,00,37,5.20
2007,04,10,00,38,6.30
2007,04,10,00,39,3.60
2007,04,10,00,40,5.30
2007,04,10,00,41,8.50
2007,04,10,00,42,5.80
2007,04,10,00,43,5.40
2007,04,10,00,44,8.10
2007,04,10,00,45,7.70
2007,04,10,00,46,6.70
2007,04,10,00,47,5.50
2007,04,10,00,48,4.30
2007,04,10,00,49,7.20
2007,04,10,00,50,4.80
2007,04,10,00,51,7.60
2007,04,10,00,52,5.90
2007,04,10,00,53,6.50
2007,04,10,00,54,6.60
2007,04,10,00,55,4.90
2007,04,10,00,56,5.10
2007,04,10,00,57,5.00
2007,04,10,00,58,5.20
2007,04,10,00,59,3.80
2007,04,10,01,00,5.70
2007,04,10,01,01,3.90
2007,04,10,01,02,7.00
2007,04,10,01,03,5.40
2007,04,10,01,04,4.70
2007,04,10,01,05,5.10
2007,04,10,01,06,7.40
2007,04,10,01,07,7.60
2007,04,10,01,08,6.40
2007,04,10,01,09,6.50
2007,04,10,01,10,5.50
2007,04,10,01,11,6.20
2007,04,10,01,12,11.60
2007,04,10,01,13,7.70
2007,04,10,01,14,7.90
2007,04,10,01,15,8.00
2007,04,10,01,16,9.30
2007,04,10,01,17,10.30
2007,04,10,01,18,9.00
2007,04,10,01,19,12.90
2007,04,10,01,20,9.40
2007,04,10,01,21,8.80
2007,04,10,01,22,12.10
2007,04,10,01,23,9.80
2007,04,10,01,24,11.60
2007,04,10,01,25,13.00
2007,04,10,01,26,9.40
2007,04,10,01,27,9.40
2007,04,10,01,28,7.20
2007,04,10,01,29,11.40
2007,04,10,01,30,12.70
2007,04,10,01,31,15.20
2007,04,10,01,32,20.40
2007,04,10,01,33,7.80
2007,04,10,01,34,8.10
2007,04,10,01,35,15.30
2007,04,10,01,36,8.90
2007,04,10,01,37,10.10
2007,04,10,01,38,12.90
2007,04,10,01,39,10.90
2007,04,10,01,40,15.50
2007,04,10,01,41,11.90
2007,04,10,01,42,7.50
2007,04,10,01,43,12.30
2007,04,10,01,44,12.00
2007,04,10,01,45,8.30
2007,04,10,01,46,8.10
2007,04,10,01,47,14.00
2007,04,10,01,48,10.90
2007,04,10,01,49,15.80
2007,04,10,01,50,13.40
2007,04,10,01,51,15.90
2007,04,10,01,52,8.60
2007,04,10,01,53,11.10
2007,04,10,01,54,5.80
2007,04,10,01,55,5.00
2007,04,10,01,56,6.10
2007,04,10,01,57,7.80
2007,04,10,01,58,9.70
2007,04,10,01,59,8.60
2007,04,10,02,00,7.30
2007,04,10,02,01,5.20
2007,04,10,02,02,8.30
2007,04,10,02,03,5.10
2007,04,10,02,04,1.80
2007,04,10,02,05,4.50
2007,04,10,02,06,4.30
2007,04,10,02,07,4.90
2007,04,10,02,08,3.90
2007,04,10,02,09,3.50
2007,04,10,02,10,3.30
2007,04,10,02,11,3.60
2007,04,10,02,12,5.10
2007,04,10,02,13,3.50
2007,04,10,02,14,4.20
2007,04,10,02,15,5.60
2007,04,10,02,16,4.50
2007,04,10,02,17,4.10
2007,04,10,02,18,4.10
2007,04,10,02,19,5.10
2007,04,10,02,20,4.50
2007,04,10,02,21,6.80
2007,04,10,02,22,5.80
2007,04,10,02,23,9.80
2007,04,10,02,24,5.00
2007,04,10,02,25,7.20
2007,04,10,02,26,6.80
2007,04,10,02,27,7.60
2007,04,10,02,28,6.60
2007,04,10,02,29,3.60
2007,04,10,02,30,6.30
2007,04,10,02,31,8.00
2007,04,10,02,32,7.00
2007,04,10,02,33,7.40
2007,04,10,02,34,7.50
2007,04,10,02,35,9.80
2007,04,10,02,36,11.30
2007,04,10,02,37,6.20
2007,04,10,02,38,11.70
2007,04,10,02,39,8.40
2007,04,10,02,40,6.30
2007,04,10,02,41,5.60
2007,04,10,02,42,8.60
2007,04,10,02,43,10.50
2007,04,10,02,44,6.40
2007,04,10,02,45,4.80
2007,04,10,02,46,4.80
2007,04,10,02,47,4.90
2007,04,10,02,48,3.50
2007,04,10,02,49,4.80
2007,04,10,02,50,7.60
2007,04,10,02,51,7.20
2007,04,10,02,52,3.90
2007,04,10,02,53,4.30
2007,04,10,02,54,6.10
2007,04,10,02,55,7.50
2007,04,10,02,56,5.90
2007,04,10,02,57,7.10
2007,04,10,02,58,4.40
2007,04,10,02,59,4.80
2007,04,10,03,00,9.90
2007,04,10,03,01,6.20
2007,04,10,03,02,8.50
2007,04,10,03,03,8.40
2007,04,10,03,04,6.30
2007,04,10,03,05,5.10
2007,04,10,03,06,6.20
2007,04,10,03,07,10.80
2007,04,10,03,08,5.00
2007,04,10,03,09,6.60
2007,04,10,03,10,5.60
2007,04,10,03,11,3.10
2007,04,10,03,12,4.30
2007,04,10,03,13,4.50
2007,04,10,03,14,7.60
2007,04,10,03,15,6.50
2007,04,10,03,16,12.40
2007,04,10,03,17,14.50
2007,04,10,03,18,8.60
2007,04,10,03,19,7.50
2007,04,10,03,20,5.90
2007,04,10,03,21,4.00
2007,04,10,03,22,6.50
2007,04,10,03,23,9.40
2007,04,10,03,24,6.60
2007,04,10,03,25,9.50
2007,04,10,03,26,10.10
2007,04,10,03,27,13.00
2007,04,10,03,28,14.70
2007,04,10,03,29,13.90
2007,04,10,03,30,9.00
2007,04,10,03,31,8.80
2007,04,10,03,32,8.00
2007,04,10,03,33,14.80
2007,04,10,03,34,10.70
2007,04,10,03,35,10.30
2007,04,10,03,36,14.60
2007,04,10,03,37,9.40
2007,04,10,03,38,7.10
2007,04,10,03,39,10.10
2007,04,10,03,40,9.10
2007,04,10,03,41,6.90
2007,04,10,03,42,6.30
2007,04,10,03,43,8.50
2007,04,10,03,44,9.50
2007,04,10,03,45,6.30
2007,04,10,03,46,5.50
2007,04,10,03,47,7.20
2007,04,10,03,48,5.60
2007,04,10,03,49,7.80
2007,04,10,03,50,7.80
2007,04,10,03,51,4.80
2007,04,10,03,52,5.70
2007,04,10,03,53,6.20
2007,04,10,03,54,3.60
2007,04,10,03,55,4.60
2007,04,10,03,56,4.50
2007,04,10,03,57,6.30
2007,04,10,03,58,8.00
2007,04,10,03,59,10.30
2007,04,10,04,00,5.60
2007,04,10,04,01,1.00
2007,04,10,04,02,3.80
2007,04,10,04,03,2.20
2007,04,10,04,04,2.10
2007,04,10,04,05,1.10
2007,04,10,04,06,0.10
2007,04,10,04,07,0.00
2007,04,10,04,08,1.40
2007,04,10,04,09,1.10
2007,04,10,04,10,0.60
2007,04,10,04,11,1.40
2007,04,10,04,12,0.00
2007,04,10,04,13,0.10
2007,04,10,04,14,0.80
2007,04,10,04,15,0.00
2007,04,10,04,16,0.10
2007,04,10,04,17,0.00
2007,04,10,04,18,0.00
2007,04,10,04,19,0.00
2007,04,10,04,20,0.00
2007,04,10,04,21,0.00
2007,04,10,04,22,0.00
2007,04,10,04,23,0.00
2007,04,10,04,24,0.60
2007,04,10,04,25,0.90
2007,04,10,04,26,0.20
2007,04,10,04,27,0.80
2007,04,10,04,28,0.00
2007,04,10,04,29,0.00
2007,04,10,04,30,0.10
2007,04,10,04,31,0.20
2007,04,10,04,32,0.00
2007,04,10,04,33,0.60
2007,04,10,04,34,0.00
2007,04,10,04,35,0.00
2007,04,10,04,36,0.00
2007,04,10,04,37,0.00
2007,04,10,04,38,0.00
2007,04,10,04,39,0.00
2007,04,10,04,40,0.00
2007,04,10,04,41,0.00
2007,04,10,04,42,0.00
2007,04,10,04,43,0.00
2007,04,10,04,44,0.10
2007,04,10,04,45,0.00
2007,04,10,04,46,1.20
2007,04,10,04,47,1.50
2007,04,10,04,48,2.70
2007,04,10,04,49,1.60
2007,04,10,04,50,1.70
2007,04,10,04,51,0.80
2007,04,10,04,52,1.80
2007,04,10,04,53,0.60
2007,04,10,04,54,0.00
2007,04,10,04,55,1.60
2007,04,10,04,56,0.90
2007,04,10,04,57,1.80
2007,04,10,04,58,1.10
2007,04,10,04,59,1.00
2007,04,10,05,00,0.60
2007,04,10,05,01,3.80
2007,04,10,05,02,0.30
2007,04,10,05,03,0.00
2007,04,10,05,04,0.00
2007,04,10,05,05,0.50
2007,04,10,05,06,1.90
2007,04,10,05,07,1.60
2007,04,10,05,08,3.30
2007,04,10,05,09,0.90
2007,04,10,05,10,1.40
2007,04,10,05,11,1.60
2007,04,10,05,12,0.90
2007,04,10,05,13,3.00
2007,04,10,05,14,6.00
2007,04,10,05,15,3.40
2007,04,10,05,16,2.50
2007,04,10,05,17,2.20
2007,04,10,05,18,3.20
2007,04,10,05,19,4.30
2007,04,10,05,20,3.20
2007,04,10,05,21,3.80
2007,04,10,05,22,5.50
2007,04,10,05,23,5.50
2007,04,10,05,24,9.60
2007,04,10,05,25,6.30
2007,04,10,05,26,4.60
2007,04,10,05,27,4.80
2007,04,10,05,28,8.00
2007,04,10,05,29,9.00
2007,04,10,05,30,11.70
2007,04,10,05,31,7.10
2007,04,10,05,32,6.40
2007,04,10,05,33,7.20
2007,04,10,05,34,6.80
2007,04,10,05,35,6.40
2007,04,10,05,36,7.60
2007,04,10,05,37,8.00
2007,04,10,05,38,7.20
2007,04,10,05,39,7.20
2007,04,10,05,40,8.50
2007,04,10,05,41,7.30
2007,04,10,05,42,4.50
2007,04,10,05,43,7.40
2007,04,10,05,44,6.50
2007,04,10,05,45,7.80
2007,04,10,05,46,8.20
2007,04,10,05,47,6.40
2007,04,10,05,48,5.60
2007,04,10,05,49,11.60
2007,04,10,05,50,7.20
2007,04,10,05,51,6.10
2007,04,10,05,52,7.40
2007,04,10,05,53,8.80
2007,04,10,05,54,7.10
2007,04,10,05,55,9.70
2007,04,10,05,56,9.10
2007,04,10,05,57,8.80
2007,04,10,05,58,5.10
2007,04,10,05,59,9.80
2007,04,10,06,00,8.00
2007,04,10,06,01,9.30
2007,04,10,06,02,5.70
2007,04,10,06,03,6.00
2007,04,10,06,04,6.40
2007,04,10,06,05,7.10
2007,04,10,06,06,8.60
2007,04,10,06,07,7.30
2007,04,10,06,08,6.80
2007,04,10,06,09,6.80
2007,04,10,06,10,6.80
2007,04,10,06,11,7.20
2007,04,10,06,12,6.90
2007,04,10,06,13,7.10
2007,04,10,06,14,8.30
2007,04,10,06,15,5.90
2007,04,10,06,16,6.80
2007,04,10,06,17,7.90
2007,04,10,06,18,4.20
2007,04,10,06,19,3.80
2007,04,10,06,20,2.90
2007,04,10,06,21,5.20
2007,04,10,06,22,7.20
2007,04,10,06,23,3.10
2007,04,10,06,24,1.80
2007,04,10,06,25,3.20
2007,04,10,06,26,2.20
2007,04,10,06,27,3.00
2007,04,10,06,28,4.10
2007,04,10,06,29,3.70
2007,04,10,06,30,4.20
2007,04,10,06,31,3.50
2007,04,10,06,32,3.20
2007,04,10,06,33,2.70
2007,04,10,06,34,4.40
2007,04,10,06,35,5.40
2007,04,10,06,36,3.90
2007,04,10,06,37,4.60
2007,04,10,06,38,4.10
2007,04,10,06,39,3.70
2007,04,10,06,40,5.70
2007,04,10,06,41,4.30
2007,04,10,06,42,3.50
2007,04,10,06,43,3.90
2007,04,10,06,44,4.30
2007,04,10,06,45,3.60
2007,04,10,06,46,3.00
2007,04,10,06,47,3.30
2007,04,10,06,48,1.90
2007,04,10,06,49,2.30
2007,04,10,06,50,1.60
2007,04,10,06,51,2.90
2007,04,10,06,52,1.80
2007,04,10,06,53,1.40
2007,04,10,06,54,1.40
2007,04,10,06,55,0.20
2007,04,10,06,56,0.00
2007,04,10,06,57,0.00
2007,04,10,06,58,0.00
2007,04,10,06,59,0.00
2007,04,10,07,00,0.00
2007,04,10,07,01,0.00
2007,04,10,07,02,0.00
2007,04,10,07,03,0.00
2007,04,10,07,04,0.00
2007,04,10,07,05,0.20
2007,04,10,07,06,0.40
2007,04,10,07,07,0.00
2007,04,10,07,08,0.00
2007,04,10,07,09,0.00
2007,04,10,07,10,0.10
2007,04,10,07,11,0.00
2007,04,10,07,12,0.00
2007,04,10,07,13,0.00
2007,04,10,07,14,0.00
2007,04,10,07,15,0.00
2007,04,10,07,16,0.00
2007,04,10,07,17,0.00
2007,04,10,07,18,0.00
2007,04,10,07,19,0.00
2007,04,10,07,20,0.00
2007,04,10,07,21,0.00
2007,04,10,07,22,0.20
2007,04,10,07,23,0.00
2007,04,10,07,24,0.00
2007,04,10,07,25,0.00
2007,04,10,07,26,0.00
2007,04,10,07,27,1.50
2007,04,10,07,28,0.20
2007,04,10,07,29,0.10
2007,04,10,07,30,0.00
2007,04,10,07,31,0.10
2007,04,10,07,32,0.20
2007,04,10,07,33,0.00
2007,04,10,07,34,0.20
2007,04,10,07,35,0.00
2007,04,10,07,36,0.00
2007,04,10,07,37,0.00
2007,04,10,07,38,1.20
2007,04,10,07,39,1.30
2007,04,10,07,40,1.90
2007,04,10,07,41,3.10
2007,04,10,07,42,1.40
2007,04,10,07,43,0.10
2007,04,10,07,44,0.00
2007,04,10,07,45,0.30
2007,04,10,07,46,0.80
2007,04,10,07,47,0.20
2007,04,10,07,48,0.40
2007,04,10,07,49,1.70
2007,04,10,07,50,1.40
2007,04,10,07,51,0.90
2007,04,10,07,52,1.50
2007,04,10,07,53,1.00
2007,04,10,07,54,0.90
2007,04,10,07,55,2.50
2007,04,10,07,56,1.80
2007,04,10,07,57,3.50
2007,04,10,07,58,1.80
2007,04,10,07,59,2.00
2007,04,10,08,00,3.00
2007,04,10,08,01,2.40
2007,04,10,08,02,1.90
2007,04,10,08,03,1.90
2007,04,10,08,04,3.50
2007,04,10,08,05,4.30
2007,04,10,08,06,3.10
2007,04,10,08,07,4.30
2007,04,10,08,08,2.70
2007,04,10,08,09,2.60
2007,04,10,08,10,3.00
2007,04,10,08,11,1.50
2007,04,10,08,12,2.50
2007,04,10,08,13,2.50
2007,04,10,08,14,1.50
2007,04,10,08,15,3.70
2007,04,10,08,16,8.40
2007,04,10,08,17,4.30
2007,04,10,08,18,4.10
2007,04,10,08,19,11.30
2007,04,10,08,20,8.40
2007,04,10,08,21,6.40
2007,04,10,08,22,4.30
2007,04,10,08,23,4.50
2007,04,10,08,24,6.00
2007,04,10,08,25,5.20
2007,04,10,08,26,5.40
2007,04,10,08,27,7.90
2007,04,10,08,28,8.70
2007,04,10,08,29,4.90
2007,04,10,08,30,3.50
2007,04,10,08,31,2.60
2007,04,10,08,32,1.50
2007,04,10,08,33,2.70
2007,04,10,08,34,4.60
2007,04,10,08,35,2.50
2007,04,10,08,36,6.10
2007,04,10,08,37,6.60
2007,04,10,08,38,7.50
2007,04,10,08,39,3.60
2007,04,10,08,40,3.50
2007,04,10,08,41,4.80
2007,04,10,08,42,6.10
2007,04,10,08,43,5.10
2007,04,10,08,44,4.20
2007,04,10,08,45,6.50
2007,04,10,08,46,2.80
2007,04,10,08,47,8.40
2007,04,10,08,48,8.80
2007,04,10,08,49,7.60
2007,04,10,08,50,7.50
2007,04,10,08,51,6.80
2007,04,10,08,52,4.20
2007,04,10,08,53,1.10
2007,04,10,08,54,5.80
2007,04,10,08,55,3.60
2007,04,10,08,56,2.30
2007,04,10,08,57,3.80
2007,04,10,08,58,4.10
2007,04,10,08,59,4.60
2007,04,10,09,00,5.80
2007,04,10,09,01,4.10
2007,04,10,09,02,4.00
2007,04,10,09,03,2.30
2007,04,10,09,04,2.50
2007,04,10,09,05,4.60
2007,04,10,09,06,4.70
2007,04,10,09,07,6.20
2007,04,10,09,08,5.90
2007,04,10,09,09,6.00
2007,04,10,09,10,5.20
2007,04,10,09,11,6.00
2007,04,10,09,12,7.40
2007,04,10,09,13,7.10
2007,04,10,09,14,4.50
2007,04,10,09,15,4.30
2007,04,10,09,16,5.10
2007,04,10,09,17,8.80
2007,04,10,09,18,2.80
2007,04,10,09,19,2.80
2007,04,10,09,20,3.80
2007,04,10,09,21,3.70
2007,04,10,09,22,6.00
2007,04,10,09,23,3.00
2007,04,10,09,24,3.80
2007,04,10,09,25,5.70
2007,04,10,09,26,2.90
2007,04,10,09,27,4.50
2007,04,10,09,28,4.00
2007,04,10,09,29,4.80
2007,04,10,09,30,4.70
2007,04,10,09,31,4.00
2007,04,10,09,32,4.40
2007,04,10,09,33,3.90
2007,04,10,09,34,3.00
2007,04,10,09,35,1.50
2007,04,10,09,36,2.60
2007,04,10,09,37,4.00
2007,04,10,09,38,3.00
2007,04,10,09,39,2.90
2007,04,10,09,40,3.70
2007,04,10,09,41,5.10
2007,04,10,09,42,6.50
2007,04,10,09,43,8.50
2007,04,10,09,44,4.70
2007,04,10,09,45,3.00
2007,04,10,09,46,2.50
2007,04,10,09,47,2.90
2007,04,10,09,48,4.10
2007,04,10,09,49,2.20
2007,04,10,09,50,5.40
2007,04,10,09,51,5.10
2007,04,10,09,52,4.80
2007,04,10,09,53,3.60
2007,04,10,09,54,2.10
2007,04,10,09,55,3.10
2007,04,10,09,56,3.70
2007,04,10,09,57,6.60
2007,04,10,09,58,1.20
2007,04,10,09,59,7.20
2007,04,10,10,00,6.50
2007,04,10,10,01,2.50
2007,04,10,10,02,2.00
2007,04,10,10,03,8.40
2007,04,10,10,04,6.30
2007,04,10,10,05,5.10
2007,04,10,10,06,2.80
2007,04,10,10,07,5.10
2007,04,10,10,08,6.40
2007,04,10,10,09,4.10
2007,04,10,10,10,4.70
2007,04,10,10,11,7.50
2007,04,10,10,12,8.00
2007,04,10,10,13,5.70
2007,04,10,10,14,7.60
2007,04,10,10,15,5.70
2007,04,10,10,16,7.90
2007,04,10,10,17,2.50
2007,04,10,10,18,2.60
2007,04,10,10,19,3.70
2007,04,10,10,20,2.50
2007,04,10,10,21,5.10
2007,04,10,10,22,4.90
2007,04,10,10,23,4.90
2007,04,10,10,24,5.80
2007,04,10,10,25,4.20
2007,04,10,10,26,3.40
2007,04,10,10,27,2.60
2007,04,10,10,28,1.80
2007,04,10,10,29,6.50
2007,04,10,10,30,6.40
2007,04,10,10,31,4.10
2007,04,10,10,32,3.90
2007,04,10,10,33,3.20
2007,04,10,10,34,3.30
2007,04,10,10,35,7.90
2007,04,10,10,36,9.70
2007,04,10,10,37,7.40
2007,04,10,10,38,9.10
2007,04,10,10,39,8.00
2007,04,10,10,40,6.40
2007,04,10,10,41,8.50
2007,04,10,10,42,6.10
2007,04,10,10,43,8.00
2007,04,10,10,44,9.30
2007,04,10,10,45,8.50
2007,04,10,10,46,6.90
2007,04,10,10,47,8.50
2007,04,10,10,48,6.60
2007,04,10,10,49,8.70
2007,04,10,10,50,3.00
2007,04,10,10,51,8.50
2007,04,10,10,52,8.40
2007,04,10,10,53,7.50
2007,04,10,10,54,7.10
2007,04,10,10,55,6.20
2007,04,10,10,56,4.80
2007,04,10,10,57,4.20
2007,04,10,10,58,6.60
2007,04,10,10,59,5.90
2007,04,10,11,00,6.80
2007,04,10,11,01,3.20
2007,04,10,11,02,2.50
2007,04,10,11,03,3.50
2007,04,10,11,04,2.90
2007,04,10,11,05,5.60
2007,04,10,11,06,9.20
2007,04,10,11,07,8.70
2007,04,10,11,08,7.00
2007,04,10,11,09,4.20
2007,04,10,11,10,4.90
2007,04,10,11,11,8.20
2007,04,10,11,12,7.70
2007,04,10,11,13,8.50
2007,04,10,11,14,3.70
2007,04,10,11,15,3.10
2007,04,10,11,16,4.80
2007,04,10,11,17,4.00
2007,04,10,11,18,3.20
2007,04,10,11,19,1.00
2007,04,10,11,20,2.20
2007,04,10,11,21,2.90
2007,04,10,11,22,2.60
2007,04,10,11,23,2.80
2007,04,10,11,24,3.60
2007,04,10,11,25,5.30
2007,04,10,11,26,2.10
2007,04,10,11,27,0.40
2007,04,10,11,28,1.40
2007,04,10,11,29,0.40
2007,04,10,11,30,2.80
2007,04,10,11,31,3.80
2007,04,10,11,32,5.20
2007,04,10,11,33,4.50
2007,04,10,11,34,4.20
2007,04,10,11,35,6.90
2007,04,10,11,36,4.20
2007,04,10,11,37,3.70
2007,04,10,11,38,2.60
2007,04,10,11,39,3.60
2007,04,10,11,40,9.40
2007,04,10,11,41,7.50
2007,04,10,11,42,7.20
2007,04,10,11,43,3.10
2007,04,10,11,44,7.70
2007,04,10,11,45,5.10
2007,04,10,11,46,10.10
2007,04,10,11,47,3.70
2007,04,10,11,48,4.70
2007,04,10,11,49,4.70
2007,04,10,11,50,7.10
2007,04,10,11,51,8.80
2007,04,10,11,52,6.40
2007,04,10,11,53,7.50
2007,04,10,11,54,6.10
2007,04,10,11,55,4.00
2007,04,10,11,56,2.30
2007,04,10,11,57,3.60
2007,04,10,11,58,10.90
2007,04,10,11,59,4.40
2007,04,10,12,00,2.30
2007,04,10,12,01,6.00
2007,04,10,12,02,5.40
2007,04,10,12,03,8.00
2007,04,10,12,04,5.40
2007,04,10,12,05,4.40
2007,04,10,12,06,9.60
2007,04,10,12,07,14.30
2007,04,10,12,08,7.90
2007,04,10,12,09,4.70
2007,04,10,12,10,9.40
2007,04,10,12,11,5.70
2007,04,10,12,12,4.80
2007,04,10,12,13,5.20
2007,04,10,12,14,2.90
2007,04,10,12,15,5.10
2007,04,10,12,16,8.50
2007,04,10,12,17,5.40
2007,04,10,12,18,5.20
2007,04,10,12,19,12.00
2007,04,10,12,20,8.40
2007,04,10,12,21,5.80
2007,04,10,12,22,10.60
2007,04,10,12,23,9.20
2007,04,10,12,24,5.30
2007,04,10,12,25,7.40
2007,04,10,12,26,4.70
2007,04,10,12,27,6.80
2007,04,10,12,28,7.40
2007,04,10,12,29,6.30
2007,04,10,12,30,4.20
2007,04,10,12,31,6.20
2007,04,10,12,32,8.10
2007,04,10,12,33,5.90
2007,04,10,12,34,4.70
2007,04,10,12,35,7.30
2007,04,10,12,36,4.90
2007,04,10,12,37,7.20
2007,04,10,12,38,9.90
2007,04,10,12,39,5.50
2007,04,10,12,40,4.30
2007,04,10,12,41,6.40
2007,04,10,12,42,4.20
2007,04,10,12,43,7.10
2007,04,10,12,44,3.50
2007,04,10,12,45,8.00
2007,04,10,12,46,7.40
2007,04,10,12,47,7.80
2007,04,10,12,48,6.00
2007,04,10,12,49,12.50
2007,04,10,12,50,9.40
2007,04,10,12,51,7.70
2007,04,10,12,52,5.10
2007,04,10,12,53,8.40
2007,04,10,12,54,7.60
2007,04,10,12,55,10.20
2007,04,10,12,56,7.50
2007,04,10,12,57,4.60
2007,04,10,12,58,5.20
2007,04,10,12,59,7.80
2007,04,10,13,00,8.00
2007,04,10,13,01,3.30
2007,04,10,13,02,3.30
2007,04,10,13,03,3.20
2007,04,10,13,04,3.90
2007,04,10,13,05,8.00
2007,04,10,13,06,7.00
2007,04,10,13,07,5.10
2007,04,10,13,08,6.00
2007,04,10,13,09,6.40
2007,04,10,13,10,6.90
2007,04,10,13,11,3.90
2007,04,10,13,12,3.00
2007,04,10,13,13,6.50
2007,04,10,13,14,4.30
2007,04,10,13,15,3.90
2007,04,10,13,16,8.90
2007,04,10,13,17,9.60
2007,04,10,13,18,3.50
2007,04,10,13,19,3.60
2007,04,10,13,20,3.10
2007,04,10,13,21,1.60
2007,04,10,13,22,4.20
2007,04,10,13,23,4.20
2007,04,10,13,24,3.40
2007,04,10,13,25,5.50
2007,04,10,13,26,3.30
2007,04,10,13,27,3.60
2007,04,10,13,28,4.30
2007,04,10,13,29,2.50
2007,04,10,13,30,4.10
2007,04,10,13,31,3.80
2007,04,10,13,32,4.10
2007,04,10,13,33,3.80
2007,04,10,13,34,6.30
2007,04,10,13,35,5.90
2007,04,10,13,36,5.80
2007,04,10,13,37,5.50
2007,04,10,13,38,5.50
2007,04,10,13,39,9.70
2007,04,10,13,40,5.60
2007,04,10,13,41,4.80
2007,04,10,13,42,4.60
2007,04,10,13,43,5.10
2007,04,10,13,44,4.10
2007,04,10,13,45,2.80
2007,04,10,13,46,3.10
2007,04,10,13,47,3.90
2007,04,10,13,48,4.90
2007,04,10,13,49,4.50
2007,04,10,13,50,5.20
2007,04,10,13,51,7.90
2007,04,10,13,52,9.50
2007,04,10,13,53,8.00
2007,04,10,13,54,3.60
2007,04,10,13,55,5.70
2007,04,10,13,56,6.60
2007,04,10,13,57,2.10
2007,04,10,13,58,4.30
2007,04,10,13,59,2.00
2007,04,10,14,00,2.70
2007,04,10,14,01,3.60
2007,04,10,14,02,4.10
2007,04,10,14,03,6.10
2007,04,10,14,04,3.00
2007,04,10,14,05,5.30
2007,04,10,14,06,3.50
2007,04,10,14,07,4.10
2007,04,10,14,08,3.90
2007,04,10,14,09,3.70
2007,04,10,14,10,3.90
2007,04,10,14,11,2.00
2007,04,10,14,12,4.40
2007,04,10,14,13,3.60
2007,04,10,14,14,2.10
2007,04,10,14,15,4.70
2007,04,10,14,16,3.60
2007,04,10,14,17,9.50
2007,04,10,14,18,6.60
2007,04,10,14,19,6.80
2007,04,10,14,20,7.80
2007,04,10,14,21,8.00
2007,04,10,14,22,5.00
2007,04,10,14,23,9.50
2007,04,10,14,24,4.40
2007,04,10,14,25,9.40
2007,04,10,14,26,6.40
2007,04,10,14,27,8.60
2007,04,10,14,28,5.80
2007,04,10,14,29,6.00
2007,04,10,14,30,5.00
2007,04,10,14,31,5.30
2007,04,10,14,32,9.80
2007,04,10,14,33,4.40
2007,04,10,14,34,3.70
2007,04,10,14,35,8.80
2007,04,10,14,36,6.80
2007,04,10,14,37,5.90
2007,04,10,14,38,10.40
2007,04,10,14,39,6.20
2007,04,10,14,40,5.70
2007,04,10,14,41,6.30
2007,04,10,14,42,2.30
2007,04,10,14,43,2.30
2007,04,10,14,44,7.30
2007,04,10,14,45,5.80
2007,04,10,14,46,10.90
2007,04,10,14,47,7.30
2007,04,10,14,48,6.70
2007,04,10,14,49,4.40
2007,04,10,14,50,6.40
2007,04,10,14,51,7.40
2007,04,10,14,52,6.10
2007,04,10,14,53,4.30
2007,04,10,14,54,5.10
2007,04,10,14,55,3.50
2007,04,10,14,56,2.70
2007,04,10,14,57,3.90
2007,04,10,14,58,5.60
2007,04,10,14,59,2.60
2007,04,10,15,00,3.70
2007,04,10,15,01,6.90
2007,04,10,15,02,6.20
2007,04,10,15,03,12.40
2007,04,10,15,04,11.30
2007,04,10,15,05,5.40
2007,04,10,15,06,4.10
2007,04,10,15,07,2.70
2007,04,10,15,08,5.10
2007,04,10,15,09,10.20
2007,04,10,15,10,5.40
2007,04,10,15,11,4.50
2007,04,10,15,12,4.70
2007,04,10,15,13,2.40
2007,04,10,15,14,4.80
2007,04,10,15,15,3.30
2007,04,10,15,16,4.30
2007,04,10,15,17,3.10
2007,04,10,15,18,2.30
2007,04,10,15,19,2.00
2007,04,10,15,20,4.00
2007,04,10,15,21,2.20
2007,04,10,15,22,3.10
2007,04,10,15,23,2.70
2007,04,10,15,24,2.80
2007,04,10,15,25,5.30
2007,04,10,15,26,4.30
2007,04,10,15,27,4.50
2007,04,10,15,28,6.70
2007,04,10,15,29,5.40
2007,04,10,15,30,5.00
2007,04,10,15,31,5.80
2007,04,10,15,32,3.50
2007,04,10,15,33,4.50
2007,04,10,15,34,3.30
2007,04,10,15,35,6.30
2007,04,10,15,36,4.30
2007,04,10,15,37,1.90
2007,04,10,15,38,1.40
2007,04,10,15,39,3.70
2007,04,10,15,40,5.40
2007,04,10,15,41,4.70
2007,04,10,15,42,3.70
2007,04,10,15,43,2.60
2007,04,10,15,44,4.80
2007,04,10,15,45,5.40
2007,04,10,15,46,5.30
2007,04,10,15,47,4.30
2007,04,10,15,48,3.40
2007,04,10,15,49,4.30
2007,04,10,15,50,4.70
2007,04,10,15,51,4.60
2007,04,10,15,52,6.60
2007,04,10,15,53,4.50
2007,04,10,15,54,4.70
2007,04,10,15,55,2.50
2007,04,10,15,56,1.70
2007,04,10,15,57,2.30
2007,04,10,15,58,2.50
2007,04,10,15,59,2.60
2007,04,10,16,00,2.20
2007,04,10,16,01,1.90
2007,04,10,16,02,4.10
2007,04,10,16,03,5.80
2007,04,10,16,04,4.70
2007,04,10,16,05,4.10
2007,04,10,16,06,4.60
2007,04,10,16,07,4.80
2007,04,10,16,08,2.60
2007,04,10,16,09,4.50
2007,04,10,16,10,1.40
2007,04,10,16,11,3.00
2007,04,10,16,12,2.20
2007,04,10,16,13,1.60
2007,04,10,16,14,1.40
2007,04,10,16,15,3.50
2007,04,10,16,16,3.80
2007,04,10,16,17,3.10
2007,04,10,16,18,2.30
2007,04,10,16,19,0.80
2007,04,10,16,20,3.90
2007,04,10,16,21,3.50
2007,04,10,16,22,3.90
2007,04,10,16,23,3.60
2007,04,10,16,24,1.10
2007,04,10,16,25,1.00
2007,04,10,16,26,1.10
2007,04,10,16,27,1.10
2007,04,10,16,28,2.80
2007,04,10,16,29,3.10
2007,04,10,16,30,1.10
2007,04,10,16,31,1.70
2007,04,10,16,32,4.40
2007,04,10,16,33,1.30
2007,04,10,16,34,0.40
2007,04,10,16,35,5.40
2007,04,10,16,36,3.40
2007,04,10,16,37,1.00
2007,04,10,16,38,1.80
2007,04,10,16,39,2.00
2007,04,10,16,40,1.60
2007,04,10,16,41,1.40
2007,04,10,16,42,2.70
2007,04,10,16,43,2.30
2007,04,10,16,44,0.20
2007,04,10,16,45,1.00
2007,04,10,16,46,1.70
2007,04,10,16,47,2.10
2007,04,10,16,48,3.40
2007,04,10,16,49,2.80
2007,04,10,16,50,2.90
2007,04,10,16,51,3.70
2007,04,10,16,52,0.50
2007,04,10,16,53,0.50
2007,04,10,16,54,0.80
2007,04,10,16,55,1.40
2007,04,10,16,56,2.30
2007,04,10,16,57,3.10
2007,04,10,16,58,2.60
2007,04,10,16,59,1.60
2007,04,10,17,00,1.10
2007,04,10,17,01,1.00
2007,04,10,17,02,1.90
2007,04,10,17,03,0.20
2007,04,10,17,04,1.40
2007,04,10,17,05,0.80
2007,04,10,17,06,0.90
2007,04,10,17,07,0.90
2007,04,10,17,08,0.20
2007,04,10,17,09,0.30
2007,04,10,17,10,0.00
2007,04,10,17,11,0.80
2007,04,10,17,12,2.00
2007,04,10,17,13,0.90
2007,04,10,17,14,0.00
2007,04,10,17,15,1.50
2007,04,10,17,16,0.30
2007,04,10,17,17,0.10
2007,04,10,17,18,0.10
2007,04,10,17,19,0.20
2007,04,10,17,20,0.30
2007,04,10,17,21,0.70
2007,04,10,17,22,1.90
2007,04,10,17,23,2.00
2007,04,10,17,24,2.10
2007,04,10,17,25,0.20
2007,04,10,17,26,0.40
2007,04,10,17,27,0.00
2007,04,10,17,28,1.80
2007,04,10,17,29,0.10
2007,04,10,17,30,0.70
2007,04,10,17,31,1.30
2007,04,10,17,32,0.50
2007,04,10,17,33,1.10
2007,04,10,17,34,1.00
2007,04,10,17,35,1.50
2007,04,10,17,36,1.40
2007,04,10,17,37,0.30
2007,04,10,17,38,2.90
2007,04,10,17,39,2.50
2007,04,10,17,40,2.60
2007,04,10,17,41,3.00
2007,04,10,17,42,1.30
2007,04,10,17,43,3.20
2007,04,10,17,44,2.00
2007,04,10,17,45,1.00
2007,04,10,17,46,0.60
2007,04,10,17,47,0.50
2007,04,10,17,48,1.10
2007,04,10,17,49,2.40
2007,04,10,17,50,1.40
2007,04,10,17,51,1.90
2007,04,10,17,52,1.50
2007,04,10,17,53,0.60
2007,04,10,17,54,3.00
2007,04,10,17,55,0.30
2007,04,10,17,56,0.10
2007,04,10,17,57,1.60
2007,04,10,17,58,1.60
2007,04,10,17,59,1.10
2007,04,10,18,00,0.00
2007,04,10,18,01,0.30
2007,04,10,18,02,4.80
2007,04,10,18,03,1.00